This is the latest recevied weather packets stored in our database for station/object VY2CRA-4. If no packets are shown the sender has not sent any weather packets the latest 10 day(s).
| Time | Temp. | Humidity | Pressure | Rain* | Wind** | Luminosity | Snow |
|---|---|---|---|---|---|---|---|
| 1777843512 | 9.44° C | 63% | 989 hPa | 0 mm | - | - | - |
| 1777842311 | 10° C | 61% | 990.1 hPa | 0 mm | - | - | - |
| 1777841110 | 10° C | 61% | 991.3 hPa | 0 mm | - | - | - |
| 1777839909 | 10° C | 59% | 992.3 hPa | 0 mm | - | - | - |
| 1777838710 | 10.56° C | 58% | 993.1 hPa | 0 mm | - | - | - |
| 1777837507 | 10.56° C | 57% | 994 hPa | 0 mm | - | - | - |
| 1777836306 | 11.11° C | 56% | 994.5 hPa | 0 mm | - | - | - |
| 1777835106 | 11.67° C | 54% | 995.5 hPa | 0 mm | - | - | - |
| 1777833904 | 11.67° C | 53% | 995.8 hPa | 0 mm | - | - | - |
| 1777832704 | 12.22° C | 51% | 996.2 hPa | 0 mm | - | - | - |
| 1777831504 | 12.78° C | 48% | 997.2 hPa | 0 mm | - | - | - |
| 1777830303 | 13.33° C | 46% | 998.6 hPa | 0 mm | - | - | - |
| 1777829101 | 13.89° C | 45% | 1000.2 hPa | 0 mm | - | - | - |
| 1777827900 | 14.44° C | 44% | 1001.1 hPa | 0 mm | - | - | - |
| 1777826699 | 15° C | 42% | 1002.1 hPa | 0 mm | - | - | - |
| 1777825499 | 15.56° C | 39% | 1001.9 hPa | 0 mm | - | - | - |
| 1777824300 | 15.56° C | 37% | 1002.8 hPa | 0 mm | - | - | - |
| 1777823096 | 16.11° C | 35% | 1002.8 hPa | 0 mm | - | - | - |
| 1777821895 | 17.22° C | 32% | 1003.9 hPa | 0 mm | - | - | - |
| 1777820695 | 17.78° C | 31% | 1004.3 hPa | 0 mm | - | - | - |
| 1777819493 | 17.78° C | 32% | 1004.7 hPa | 0 mm | - | - | - |
| 1777818292 | 17.22° C | 33% | 1005.5 hPa | 0 mm | - | - | - |
| 1777817092 | 17.22° C | 33% | 1006.2 hPa | 0 mm | - | - | - |
| 1777815891 | 17.22° C | 34% | 1005.9 hPa | 0 mm | - | - | - |
| 1777814690 | 17.22° C | 35% | 1005.5 hPa | 0 mm | - | - | - |
* Rain since midnight (hover to see other rain measurements)
** Current wind speed in m/s (hover to see current wind gust speed)